When you browse on this site, cookies collect data to enhance your experience and personalize the content and advertising you see.
Visit our Privacy Policy to learn more. By continuing to use the site, you agree to this use of cookies and data.
  • In Switzerland
  • List of Countries
  • For 7 days
  • Water Temperature
  • Weather Map
  • Weather Widgets
  • user-avatar
    Login

    Hourly Weather Luanda

    Today, 15 September, Sunday

    Time Temperature Precipitation Wind Pressure Humidity
    00:00 +22°C° 0 mm 3 mps 754 mmHg 81%
    01:00 +23°C° 0 mm 2 mps 754 mmHg 82%
    02:00 +21°C° 0 mm 2 mps 754 mmHg 83%
    03:00 +22°C° 0 mm 1 mps 754 mmHg 84%
    04:00 +22°C° 0 mm 1 mps 754 mmHg 85%
    05:00 +22°C° 0 mm 1 mps 754 mmHg 83%
    06:00 +21°C° 0 mm 0 mps 755 mmHg 80%
    07:00 +21°C° 0 mm 0 mps 755 mmHg 78%
    08:00 +24°C° 0 mm 1 mps 755 mmHg 71%
    09:00 +26°C° 0 mm 1 mps 755 mmHg 64%
    10:00 +27°C° 0 mm 2 mps 755 mmHg 57%
    11:00 +28°C° 0 mm 2 mps 754 mmHg 56%
    12:00 +28°C° 0 mm 3 mps 753 mmHg 54%
    13:00 +29°C° 0 mm 4 mps 752 mmHg 53%
    14:00 +28°C° 0 mm 5 mps 752 mmHg 55%
    15:00 +28°C° 0 mm 5 mps 752 mmHg 58%
    16:00 +27°C° 0 mm 6 mps 751 mmHg 60%
    17:00 +26°C° 0 mm 5 mps 752 mmHg 65%
    18:00 +25°C° 0 mm 5 mps 752 mmHg 70%
    19:00 +23°C° 0 mm 5 mps 753 mmHg 75%
    20:00 +23°C° 0 mm 4 mps 753 mmHg 76%
    21:00 +22°C° 0 mm 4 mps 754 mmHg 77%
    22:00 +22°C° 0 mm 4 mps 755 mmHg 78%
    23:00 +22°C° 0 mm 3 mps 754 mmHg 78%

    Tomorrow, 16 September, Monday

    Time Temperature Precipitation Wind Pressure Humidity
    00:00 +22°C° 0 mm 3 mps 754 mmHg 79%
    01:00 +23°C° 0 mm 2 mps 754 mmHg 80%
    02:00 +23°C° 0 mm 2 mps 753 mmHg 79%
    03:00 +23°C° 0 mm 2 mps 753 mmHg 79%
    04:00 +23°C° 0 mm 2 mps 753 mmHg 78%
    05:00 +23°C° 0 mm 2 mps 753 mmHg 77%
    06:00 +23°C° 0 mm 1 mps 754 mmHg 75%
    07:00 +21°C° 0 mm 0 mps 754 mmHg 74%
    08:00 +25°C° 0 mm 1 mps 754 mmHg 65%
    09:00 +27°C° 0 mm 1 mps 754 mmHg 55%
    10:00 +29°C° 0 mm 2 mps 754 mmHg 46%
    11:00 +30°C° 0 mm 3 mps 753 mmHg 46%
    12:00 +30°C° 0 mm 4 mps 753 mmHg 47%
    13:00 +30°C° 0 mm 5 mps 752 mmHg 47%
    14:00 +29°C° 0 mm 6 mps 752 mmHg 52%
    15:00 +28°C° 0 mm 7 mps 751 mmHg 57%
    16:00 +27°C° 0 mm 7 mps 751 mmHg 61%
    17:00 +26°C° 0 mm 7 mps 752 mmHg 66%
    18:00 +24°C° 0 mm 6 mps 753 mmHg 71%
    19:00 +23°C° 0 mm 6 mps 754 mmHg 76%
    20:00 +23°C° 0 mm 5 mps 754 mmHg 76%
    21:00 +24°C° 0 mm 3 mps 754 mmHg 76%
    22:00 +24°C° 0 mm 2 mps 755 mmHg 75%
    23:00 +24°C° 0 mm 2 mps 755 mmHg 76%

    Day after tomorrow, 17 September, Tuesday

    Time Temperature Precipitation Wind Pressure Humidity
    00:00 +24°C° 0 mm 2 mps 755 mmHg 77%
    01:00 +24°C° 0 mm 1 mps 754 mmHg 78%
    02:00 +24°C° 0.1 mm 1 mps 754 mmHg 79%
    03:00 +23°C° 0.1 mm 2 mps 754 mmHg 80%
    04:00 +23°C° 0.1 mm 2 mps 754 mmHg 81%
    05:00 +23°C° 0.1 mm 1 mps 754 mmHg 80%
    06:00 +23°C° 0.1 mm 1 mps 754 mmHg 79%
    07:00 +24°C° 0.1 mm 1 mps 755 mmHg 79%
    08:00 +26°C° 0 mm 1 mps 755 mmHg 69%
    09:00 +28°C° 0 mm 1 mps 754 mmHg 60%
    10:00 +30°C° 0 mm 1 mps 754 mmHg 51%
    11:00 +30°C° 0 mm 3 mps 753 mmHg 50%
    12:00 +30°C° 0 mm 4 mps 753 mmHg 49%
    13:00 +30°C° 0 mm 5 mps 752 mmHg 48%
    14:00 +30°C° 0 mm 5 mps 752 mmHg 52%
    15:00 +29°C° 0 mm 6 mps 752 mmHg 55%
    16:00 +28°C° 0 mm 6 mps 751 mmHg 58%
    17:00 +27°C° 0 mm 5 mps 752 mmHg 64%
    18:00 +26°C° 0 mm 5 mps 753 mmHg 70%
    19:00 +25°C° 0 mm 4 mps 753 mmHg 76%
    20:00 +25°C° 0 mm 4 mps 754 mmHg 77%
    21:00 +24°C° 0 mm 3 mps 754 mmHg 78%
    22:00 +24°C° 0 mm 3 mps 755 mmHg 79%
    23:00 +24°C° 0 mm 3 mps 754 mmHg 79%

    18 September, Wednesday

    Time Temperature Precipitation Wind Pressure Humidity
    00:00 +24°C° 0 mm 2 mps 754 mmHg 80%
    01:00 +24°C° 0 mm 2 mps 754 mmHg 80%
    02:00 +24°C° 0 mm 1 mps 755 mmHg 79%
    03:00 +24°C° 0 mm 1 mps 755 mmHg 79%
    04:00 +24°C° 0 mm 1 mps 755 mmHg 78%
    05:00 +24°C° 0 mm 1 mps 755 mmHg 76%
    06:00 +25°C° 0 mm 1 mps 755 mmHg 74%
    07:00 +23°C° 0 mm 0 mps 756 mmHg 71%
    08:00 +26°C° 0 mm 1 mps 755 mmHg 64%
    09:00 +28°C° 0 mm 1 mps 755 mmHg 57%
    10:00 +29°C° 0 mm 2 mps 755 mmHg 50%
    11:00 +30°C° 0 mm 3 mps 754 mmHg 49%
    12:00 +30°C° 0 mm 4 mps 754 mmHg 48%
    13:00 +30°C° 0 mm 4 mps 753 mmHg 48%
    14:00 +30°C° 0 mm 4 mps 753 mmHg 50%
    15:00 +29°C° 0 mm 5 mps 752 mmHg 52%
    16:00 +28°C° 0 mm 5 mps 752 mmHg 55%
    17:00 +27°C° 0 mm 4 mps 752 mmHg 60%
    18:00 +26°C° 0 mm 4 mps 753 mmHg 66%
    19:00 +25°C° 0 mm 4 mps 753 mmHg 71%
    20:00 +25°C° 0 mm 3 mps 754 mmHg 73%
    21:00 +24°C° 0 mm 3 mps 754 mmHg 75%
    22:00 +24°C° 0 mm 3 mps 755 mmHg 77%
    23:00 +24°C° 0 mm 2 mps 755 mmHg 79%

    19 September, Thursday

    Time Temperature Precipitation Wind Pressure Humidity
    00:00 +24°C° 0 mm 2 mps 754 mmHg 81%
    01:00 +23°C° 0 mm 2 mps 754 mmHg 83%
    02:00 +23°C° 0 mm 1 mps 755 mmHg 83%
    03:00 +23°C° 0 mm 1 mps 755 mmHg 84%
    04:00 +23°C° 0 mm 1 mps 755 mmHg 85%
    05:00 +23°C° 0 mm 1 mps 755 mmHg 81%
    06:00 +23°C° 0 mm 1 mps 755 mmHg 78%
    07:00 +24°C° 0 mm 1 mps 756 mmHg 75%
    08:00 +26°C° 0 mm 2 mps 755 mmHg 66%
    09:00 +27°C° 0 mm 2 mps 755 mmHg 58%
    10:00 +29°C° 0 mm 3 mps 755 mmHg 49%
    11:00 +29°C° 0 mm 3 mps 754 mmHg 49%
    12:00 +30°C° 0 mm 4 mps 754 mmHg 49%
    13:00 +30°C° 0 mm 5 mps 753 mmHg 48%
    14:00 +29°C° 0 mm 5 mps 753 mmHg 52%
    15:00 +28°C° 0 mm 6 mps 753 mmHg 56%
    16:00 +27°C° 0 mm 6 mps 752 mmHg 60%
    17:00 +26°C° 0 mm 6 mps 753 mmHg 65%
    18:00 +25°C° 0 mm 5 mps 753 mmHg 71%
    19:00 +23°C° 0 mm 5 mps 754 mmHg 76%
    20:00 +23°C° 0 mm 5 mps 755 mmHg 77%
    21:00 +23°C° 0 mm 5 mps 755 mmHg 77%
    22:00 +23°C° 0 mm 4 mps 756 mmHg 78%
    23:00 +23°C° 0 mm 4 mps 755 mmHg 79%

    20 September, Friday

    Time Temperature Precipitation Wind Pressure Humidity
    00:00 +22°C° 0 mm 4 mps 755 mmHg 80%
    01:00 +22°C° 0 mm 3 mps 755 mmHg 80%
    02:00 +22°C° 0 mm 3 mps 755 mmHg 80%
    03:00 +22°C° 0 mm 3 mps 755 mmHg 80%
    04:00 +23°C° 0 mm 2 mps 755 mmHg 80%
    05:00 +23°C° 0 mm 2 mps 755 mmHg 79%
    06:00 +23°C° 0 mm 2 mps 755 mmHg 77%
    07:00 +23°C° 0 mm 1 mps 756 mmHg 76%
    08:00 +26°C° 0 mm 2 mps 756 mmHg 65%
    09:00 +28°C° 0 mm 2 mps 756 mmHg 54%
    10:00 +30°C° 0 mm 2 mps 756 mmHg 43%
    11:00 +30°C° 0 mm 3 mps 755 mmHg 43%
    12:00 +30°C° 0 mm 4 mps 754 mmHg 44%
    13:00 +32°C° 0 mm 5 mps 753 mmHg 45%
    14:00 +30°C° 0 mm 6 mps 753 mmHg 49%
    15:00 +29°C° 0 mm 6 mps 752 mmHg 52%
    16:00 +28°C° 0 mm 6 mps 752 mmHg 56%
    17:00 +27°C° 0 mm 6 mps 753 mmHg 62%
    18:00 +25°C° 0 mm 5 mps 753 mmHg 68%
    19:00 +23°C° 0 mm 5 mps 754 mmHg 75%
    20:00 +23°C° 0 mm 4 mps 754 mmHg 76%
    21:00 +23°C° 0 mm 4 mps 754 mmHg 77%
    22:00 +23°C° 0 mm 4 mps 755 mmHg 78%
    23:00 +22°C° 0 mm 3 mps 755 mmHg 79%
    Show more